DW6574 Wellesley MA US current weather conditions

sailwx.info

Wind from 226

Air temperature 1.1° C
Dewpoint -4.5° C

Last reported at 2019-Dec-05 22:00 UTC.
Time now 2019-Dec-05 23:06 UTC

Location: N 42°15' W 071°22'.
View on Google Maps.

See reports from other nearby stations

  
Tides and Currents Weather Stations Pressure Air Temp Water Temp Dewpoint Dewpoint Depression Visibility Wind Speed Wind Dir Waves Ship Positions
date/time (UTC)wind fromknots sea level pressurealtimeterstation pressurevisibilityair tempwater tempwave heightnotes
2019-Dec-05 22:00 226 1.1
2019-Dec-05 21:47 027 1.7
2019-Dec-05 21:32 323 2.2
2019-Dec-05 21:16 238 2.8
2019-Dec-05 21:01 271 2.8
2019-Dec-05 20:46 295 3.3
2019-Dec-05 20:31 320 3.3
2019-Dec-05 20:16 327 3.3
2019-Dec-05 20:01 280 3.3
2019-Dec-05 19:46 312 3.3
2019-Dec-05 19:31 330 3.9
2019-Dec-05 19:16 312 3.9
2019-Dec-05 19:01 240 3.9
2019-Dec-05 18:45 292 3.9
2019-Dec-05 18:31 200 4.4
2019-Dec-05 18:16 013 4.4
2019-Dec-05 18:00 025 5.0
2019-Dec-05 17:45 132 5.0
2019-Dec-05 17:30 322 5.0
2019-Dec-05 17:15 341 4.4
2019-Dec-05 17:00 333 4.4
2019-Dec-05 16:46 011 4.4
2019-Dec-05 16:30 016 4.4
2019-Dec-05 16:15 316 4.4
2019-Dec-05 16:00 264 3.9
2019-Dec-05 15:45 015 3.9
2019-Dec-05 15:30 108 3.9
2019-Dec-05 15:15 330 3.9
2019-Dec-05 15:00 273 3.3
2019-Dec-05 14:45 217 2.8
2019-Dec-05 14:30 300 2.2
2019-Dec-05 14:17 203 1.7
2019-Dec-05 13:46 018 0.6
2019-Dec-05 13:32 011 -0.6
2019-Dec-05 13:17 119 -1.7
2019-Dec-05 13:01 203 -3.3
2019-Dec-05 12:46 205 -3.9
2019-Dec-05 12:31 214 -3.9
2019-Dec-05 12:15 215 -4.4
2019-Dec-05 12:00 250 -3.9
2019-Dec-05 11:46 214 -4.4
2019-Dec-05 11:30 194 -3.9
2019-Dec-05 11:15 192 -3.3
2019-Dec-05 11:00 214 -3.3
2019-Dec-05 10:45 205 -3.3
2019-Dec-05 10:30 211 -3.3
2019-Dec-05 10:15 203 -3.3
2019-Dec-05 10:00 203 -3.3
2019-Dec-05 09:45 203 -3.3
2019-Dec-05 09:30 179 -3.3
2019-Dec-05 09:15 194 -3.3
2019-Dec-05 09:00 165 -3.3
2019-Dec-05 08:46 201 -2.8
2019-Dec-05 08:30 201 -2.8
2019-Dec-05 08:15 201 -2.8
2019-Dec-05 08:00 201 -2.8
2019-Dec-05 07:45 201 -3.3
2019-Dec-05 07:30 201 -3.3
2019-Dec-05 07:15 201 -2.8
2019-Dec-05 07:00 219 -2.8
2019-Dec-05 06:45 189 -3.3
2019-Dec-05 06:30 195 -3.3
2019-Dec-05 06:15 201 -3.3
2019-Dec-05 06:00 252 -3.3
2019-Dec-05 05:47 222 -2.8
2019-Dec-05 05:31 222 -2.8
2019-Dec-05 05:16 221 -2.2
2019-Dec-05 05:02 203 -2.2
2019-Dec-05 04:47 207 -1.7
2019-Dec-05 04:32 205 -1.7
2019-Dec-05 04:16 205 -1.7
2019-Dec-05 04:02 205 -1.1
2019-Dec-05 03:46 200 -1.1
2019-Dec-05 03:31 200 -1.1
2019-Dec-05 03:17 200 -1.1
2019-Dec-05 03:01 224 -1.1
2019-Dec-05 02:46 236 -1.1
2019-Dec-05 02:32 153 -0.6
2019-Dec-05 02:17 153 -0.6
2019-Dec-05 02:02 153 -0.6
2019-Dec-05 01:46 226 -0.6
2019-Dec-05 01:31 226 -0.6
2019-Dec-05 01:17 155 -0.6
2019-Dec-05 01:01 170 -0.6
2019-Dec-05 00:46 172 -0.6
2019-Dec-05 00:31 172 -0.6
2019-Dec-05 00:17 172 -0.6
2019-Dec-05 00:01 172 -0.0
2019-Dec-04 23:46 219 -0.0
2019-Dec-04 23:31 183 -0.6
2019-Dec-04 23:16 187 -0.6
2019-Dec-04 23:01 193 -0.0
2019-Dec-04 22:46 204 -0.0
2019-Dec-04 22:31 211 -0.0
2019-Dec-04 22:16 211 -0.0
2019-Dec-04 22:02 211 -0.0
2019-Dec-04 21:46 211 -0.0
2019-Dec-04 21:31 211 -0.0
2019-Dec-04 21:17 211 -0.0
2019-Dec-04 21:01 211 0.6
2019-Dec-04 20:45 211 0.6
2019-Dec-04 20:32 201 0.6
2019-Dec-04 20:16 200 1.1
2019-Dec-04 20:01 204 1.1
2019-Dec-04 19:46 200 1.1
2019-Dec-04 19:31 129 1.1
2019-Dec-04 19:16 129 1.1
2019-Dec-04 19:00 119 1.1
2019-Dec-04 18:45 191 1.1
2019-Dec-04 18:31 143 1.1
2019-Dec-04 18:15 218 0.6
2019-Dec-04 18:01 187 0.6
2019-Dec-04 17:45 133 0.6
2019-Dec-04 17:31 136 0.6
2019-Dec-04 17:16 169 0.6
2019-Dec-04 17:01 256 0.6
2019-Dec-04 16:46 164 -0.0
2019-Dec-04 16:30 117 -0.0
2019-Dec-04 16:15 123 -0.0
2019-Dec-04 16:00 145 -0.0
2019-Dec-04 15:46 262 -0.0
2019-Dec-04 15:30 174 -0.0
2019-Dec-04 15:16 323 -0.0
2019-Dec-04 15:00 229 -0.6
2019-Dec-04 14:45 224 -0.6
2019-Dec-04 14:30 177 -1.1
2019-Dec-04 14:15 193 -1.7
2019-Dec-04 13:47 188 -3.3
2019-Dec-04 13:31 140 -4.4
2019-Dec-04 13:17 129 -4.4
2019-Dec-04 13:01 177 -5.6
2019-Dec-04 12:46 207 -5.6
2019-Dec-04 12:31 207 -6.1
2019-Dec-04 12:16 211 -6.1
2019-Dec-04 12:01 192 -6.1
2019-Dec-04 11:46 148 -6.1
2019-Dec-04 11:33 215 -6.1
2019-Dec-04 11:16 181 -6.1
2019-Dec-04 11:01 214 -6.1
2019-Dec-04 10:46 204 -6.1
2019-Dec-04 10:32 204 -6.1
2019-Dec-04 10:17 197 -6.1
2019-Dec-04 10:01 210 -5.6
2019-Dec-04 09:46 232 -5.6
2019-Dec-04 09:31 207 -6.1
2019-Dec-04 09:16 207 -6.1
2019-Dec-04 09:01 204 -5.6
2019-Dec-04 08:45 225 -5.6
2019-Dec-04 08:31 149 -5.6
2019-Dec-04 08:15 187 -5.0
2019-Dec-04 08:00 273 -5.6
2019-Dec-04 07:46 300 -5.0
2019-Dec-04 07:30 259 -5.0
2019-Dec-04 07:15 212 -5.0
2019-Dec-04 07:01 215 -4.4
2019-Dec-04 06:46 210 -4.4
2019-Dec-04 06:30 195 -4.4
2019-Dec-04 06:16 226 -4.4
2019-Dec-04 06:00 270 -4.4
2019-Dec-04 05:46 165 -4.4
2019-Dec-04 05:30 210 -4.4
2019-Dec-04 05:15 221 -3.9
2019-Dec-04 05:00 228 -3.9
2019-Dec-04 04:45 146 -3.9
2019-Dec-04 04:30 249 -3.9
2019-Dec-04 04:15 194 -3.9
2019-Dec-04 04:00 336 -3.9
2019-Dec-04 03:45 015 -3.9
2019-Dec-04 03:30 291 -3.9
2019-Dec-04 03:15 057 -3.9
2019-Dec-04 03:00 162 -3.3
2019-Dec-04 02:45 255 -3.3
2019-Dec-04 02:33 011 -3.3
2019-Dec-04 02:16 113 -3.3
2019-Dec-04 02:02 297 -3.3
2019-Dec-04 01:47 004 -3.3
2019-Dec-04 01:32 295 -3.3
2019-Dec-04 01:17 179 -3.3
2019-Dec-04 01:02 159 -3.3
2019-Dec-04 00:46 295 -2.8
2019-Dec-04 00:32 277 -2.8
2019-Dec-04 00:16 194 -2.8
2019-Dec-04 00:02 015 -2.2
2019-Dec-03 23:46 282 -2.2
2019-Dec-03 23:31 284 -2.2
2019-Dec-03 23:16 339 -2.2
2019-Dec-03 23:01 307 -2.2